FDB738 EICK-EGFF

Flight info

Callsign FDB738
Flight time 0h 44m
Altitude 33000
Route VAPAL1S VAPAL DCT BANBA/N0418F230 N30 ADHAV P70 AGCAT Q63 BAJJA
Aircraft B738/M-SDE2E3FGHIRWXY/LB1

Departure

Time 2026-04-28 18:24
Airport Cork International Airport (EICK)

Arrival

Time 2026-04-28 19:08
Airport Cardiff International Airport (EGFF)
Time Latitude Longitude Altitude Speed Heading
2026-04-28 17:50 51.84891 -8.49080 503 ft 0 kts 70°
2026-04-28 18:18 51.84885 -8.49104 503 ft 4 kts 68°
2026-04-28 18:18 51.84874 -8.49144 503 ft 4 kts 63°
2026-04-28 18:18 51.84861 -8.49182 503 ft 4 kts 54°
2026-04-28 18:18 51.84850 -8.49204 503 ft 4 kts 40°
2026-04-28 18:19 51.84828 -8.49220 503 ft 0 kts 344°
2026-04-28 18:21 51.84829 -8.49220 503 ft 2 kts 344°
2026-04-28 18:21 51.84862 -8.49236 503 ft 7 kts 340°
2026-04-28 18:21 51.84942 -8.49278 503 ft 18 kts 344°
2026-04-28 18:22 51.85070 -8.49347 503 ft 20 kts 339°
2026-04-28 18:22 51.85141 -8.49442 503 ft 13 kts 267°
2026-04-28 18:22 51.85107 -8.49501 503 ft 0 kts 205°
2026-04-28 18:23 51.85053 -8.49543 503 ft 19 kts 205°
2026-04-28 18:23 51.84942 -8.49589 503 ft 16 kts 168°
2026-04-28 18:23 51.84831 -8.49523 503 ft 32 kts 160°
2026-04-28 18:23 51.84281 -8.49200 503 ft 132 kts 160°
2026-04-28 18:24 51.83201 -8.48594 943 ft 183 kts 160°
2026-04-28 18:24 51.82780 -8.48377 1287 ft 190 kts 159°
2026-04-28 18:24 51.80575 -8.47228 3025 ft 209 kts 151°
2026-04-28 18:24 51.79474 -8.45582 3366 ft 232 kts 110°
2026-04-28 18:25 51.79355 -8.42994 4056 ft 238 kts 75°
2026-04-28 18:25 51.79787 -8.40389 5045 ft 242 kts 74°
2026-04-28 18:25 51.80224 -8.37759 6065 ft 244 kts 74°
2026-04-28 18:26 51.81074 -8.32356 8001 ft 252 kts 75°
2026-04-28 18:26 51.81486 -8.29583 8945 ft 255 kts 75°
2026-04-28 18:26 51.81894 -8.26758 9843 ft 260 kts 75°
2026-04-28 18:26 51.82297 -8.23901 10754 ft 264 kts 75°
2026-04-28 18:27 51.82719 -8.20878 11096 ft 289 kts 75°
2026-04-28 18:27 51.83177 -8.17558 11311 ft 316 kts 76°
2026-04-28 18:27 51.83671 -8.13952 11522 ft 340 kts 76°
2026-04-28 18:27 51.84186 -8.10141 12057 ft 351 kts 76°
2026-04-28 18:28 51.84705 -8.06265 12864 ft 354 kts 76°
2026-04-28 18:28 51.85224 -8.02370 13686 ft 356 kts 76°
2026-04-28 18:28 51.85740 -7.98498 14476 ft 357 kts 76°
2026-04-28 18:28 51.86265 -7.94555 15245 ft 360 kts 75°
2026-04-28 18:29 51.86794 -7.90585 15992 ft 362 kts 75°
2026-04-28 18:29 51.87321 -7.86597 16715 ft 364 kts 75°
2026-04-28 18:29 51.87679 -7.83886 17193 ft 365 kts 75°
2026-04-28 18:29 51.88245 -7.78481 18067 ft 371 kts 80°
2026-04-28 18:30 51.88413 -7.75671 18512 ft 373 kts 81°
2026-04-28 18:30 51.88546 -7.72894 18909 ft 375 kts 82°
2026-04-28 18:30 51.88849 -7.65831 19839 ft 381 kts 82°
2026-04-28 18:30 51.89038 -7.61530 20372 ft 385 kts 82°
2026-04-28 18:31 51.89172 -7.58611 20759 ft 386 kts 82°
2026-04-28 18:31 51.89379 -7.54253 21275 ft 390 kts 82°
2026-04-28 18:31 51.89593 -7.49864 21784 ft 392 kts 81°
2026-04-28 18:31 51.89812 -7.45453 22299 ft 394 kts 81°
2026-04-28 18:32 51.90032 -7.41024 22751 ft 398 kts 81°
2026-04-28 18:32 51.90255 -7.36545 23217 ft 400 kts 81°
2026-04-28 18:32 51.90476 -7.32055 23699 ft 401 kts 81°
2026-04-28 18:32 51.90697 -7.27544 24140 ft 403 kts 81°
2026-04-28 18:33 51.90918 -7.22996 24542 ft 406 kts 81°
2026-04-28 18:33 51.91139 -7.18428 24978 ft 407 kts 81°
2026-04-28 18:33 51.91359 -7.13849 25383 ft 409 kts 81°
2026-04-28 18:33 51.91575 -7.09304 25793 ft 410 kts 81°
2026-04-28 18:34 51.91794 -7.04636 26218 ft 411 kts 81°
2026-04-28 18:34 51.92010 -7.00010 26574 ft 413 kts 81°
2026-04-28 18:34 51.92226 -6.95353 26950 ft 414 kts 81°
2026-04-28 18:34 51.92440 -6.90698 27293 ft 416 kts 81°
2026-04-28 18:35 51.92649 -6.86084 27675 ft 416 kts 81°
2026-04-28 18:35 51.92861 -6.81368 28182 ft 413 kts 81°
2026-04-28 18:35 51.93066 -6.76749 28662 ft 410 kts 82°
2026-04-28 18:35 51.93266 -6.72210 29163 ft 407 kts 82°
2026-04-28 18:36 51.93468 -6.67601 29686 ft 404 kts 82°
2026-04-28 18:36 51.93662 -6.63129 30175 ft 401 kts 82°
2026-04-28 18:36 51.93859 -6.58579 30629 ft 399 kts 81°
2026-04-28 18:36 51.94053 -6.54081 30883 ft 402 kts 82°
2026-04-28 18:37 51.94245 -6.49559 31200 ft 402 kts 82°
2026-04-28 18:37 51.94435 -6.45042 31590 ft 400 kts 82°
2026-04-28 18:37 51.94621 -6.40558 31997 ft 399 kts 82°
2026-04-28 18:37 51.94807 -6.36077 32374 ft 398 kts 82°
2026-04-28 18:38 51.94990 -6.31608 32677 ft 398 kts 81°
2026-04-28 18:38 51.95172 -6.27126 32963 ft 399 kts 82°
2026-04-28 18:38 51.95302 -6.22629 33285 ft 401 kts 85°
2026-04-28 18:39 51.95038 -6.13506 33354 ft 407 kts 88°
2026-04-28 18:39 51.94666 -6.04450 33347 ft 402 kts 88°
2026-04-28 18:40 51.94317 -5.95437 33352 ft 400 kts 88°
2026-04-28 18:40 51.93985 -5.86429 33347 ft 400 kts 88°
2026-04-28 18:41 51.93654 -5.77435 33340 ft 400 kts 88°
2026-04-28 18:41 51.93316 -5.68438 33340 ft 400 kts 88°
2026-04-28 18:42 51.92971 -5.59444 33332 ft 401 kts 88°
2026-04-28 18:42 51.92616 -5.50410 33328 ft 402 kts 88°
2026-04-28 18:43 51.92255 -5.41368 33320 ft 403 kts 88°
2026-04-28 18:43 51.91887 -5.32294 33322 ft 404 kts 89°
2026-04-28 18:44 51.91499 -5.23209 33313 ft 406 kts 90°
2026-04-28 18:44 51.89981 -5.09604 33304 ft 411 kts 95°
2026-04-28 18:45 51.88869 -5.00545 33304 ft 410 kts 95°
2026-04-28 18:45 51.87786 -4.91496 33303 ft 409 kts 95°
2026-04-28 18:46 51.86708 -4.82457 33305 ft 408 kts 95°
2026-04-28 18:46 51.85621 -4.73414 32644 ft 414 kts 96°
2026-04-28 18:47 51.85070 -4.68871 31946 ft 408 kts 95°
2026-04-28 18:47 51.84522 -4.64377 31123 ft 408 kts 95°
2026-04-28 18:47 51.83972 -4.59878 30278 ft 406 kts 95°
2026-04-28 18:47 51.83425 -4.55407 29385 ft 405 kts 95°
2026-04-28 18:48 51.82878 -4.50941 28429 ft 405 kts 96°
2026-04-28 18:48 51.82330 -4.46476 27529 ft 405 kts 96°
2026-04-28 18:48 51.81783 -4.42062 26853 ft 398 kts 96°
2026-04-28 18:48 51.81244 -4.37712 26177 ft 392 kts 96°
2026-04-28 18:49 51.80710 -4.33416 25486 ft 388 kts 96°
2026-04-28 18:49 51.80359 -4.30601 25039 ft 384 kts 96°
2026-04-28 18:49 51.79747 -4.24979 24137 ft 376 kts 92°
2026-04-28 18:49 51.79456 -4.20809 23473 ft 371 kts 91°
2026-04-28 18:50 51.79206 -4.16682 22823 ft 367 kts 91°
2026-04-28 18:50 51.78955 -4.12601 22168 ft 364 kts 91°
2026-04-28 18:50 51.78693 -4.08561 21535 ft 360 kts 91°
2026-04-28 18:50 51.78420 -4.04549 20890 ft 357 kts 92°
2026-04-28 18:51 51.78142 -4.00580 20262 ft 354 kts 92°
2026-04-28 18:51 51.77864 -3.96654 19625 ft 351 kts 92°
2026-04-28 18:51 51.77584 -3.92763 19015 ft 347 kts 92°
2026-04-28 18:51 51.77305 -3.88902 18538 ft 344 kts 92°
2026-04-28 18:52 51.77026 -3.85060 18403 ft 346 kts 93°
2026-04-28 18:52 51.76741 -3.81196 18329 ft 341 kts 93°
2026-04-28 18:52 51.76461 -3.77482 18305 ft 325 kts 93°
2026-04-28 18:52 51.76195 -3.73958 18281 ft 308 kts 92°
2026-04-28 18:53 51.75942 -3.70607 18270 ft 293 kts 92°
2026-04-28 18:53 51.75701 -3.67415 18186 ft 281 kts 92°
2026-04-28 18:53 51.75469 -3.64310 17950 ft 276 kts 92°
2026-04-28 18:53 51.75239 -3.61230 17504 ft 277 kts 92°
2026-04-28 18:54 51.75004 -3.58057 16511 ft 295 kts 93°
2026-04-28 18:54 51.74752 -3.54669 15436 ft 313 kts 94°
2026-04-28 18:54 51.74480 -3.51097 14461 ft 327 kts 94°
2026-04-28 18:54 51.74200 -3.47449 13764 ft 329 kts 95°
2026-04-28 18:55 51.73916 -3.43789 13184 ft 327 kts 95°
2026-04-28 18:55 51.73730 -3.41387 12837 ft 326 kts 95°
2026-04-28 18:55 51.73347 -3.36569 12103 ft 323 kts 97°
2026-04-28 18:55 51.72559 -3.33209 11843 ft 318 kts 119°
2026-04-28 18:56 51.71132 -3.30573 11746 ft 311 kts 136°
2026-04-28 18:56 51.69306 -3.28789 11603 ft 306 kts 151°
2026-04-28 18:56 51.67254 -3.27837 11330 ft 308 kts 168°
2026-04-28 18:56 51.65109 -3.27897 11097 ft 309 kts 181°
2026-04-28 18:57 51.62997 -3.28348 10849 ft 304 kts 183°
2026-04-28 18:57 51.60919 -3.28857 10611 ft 299 kts 183°
2026-04-28 18:57 51.58869 -3.29358 10279 ft 297 kts 183°
2026-04-28 18:57 51.56835 -3.29846 9986 ft 295 kts 182°
2026-04-28 18:58 51.54811 -3.30315 9660 ft 293 kts 182°
2026-04-28 18:58 51.52798 -3.30771 9346 ft 291 kts 182°
2026-04-28 18:58 51.50797 -3.31223 9019 ft 291 kts 182°
2026-04-28 18:58 51.48789 -3.31675 8692 ft 290 kts 182°
2026-04-28 18:59 51.46791 -3.32123 8360 ft 290 kts 182°
2026-04-28 18:59 51.44828 -3.32561 8044 ft 288 kts 182°
2026-04-28 18:59 51.42820 -3.33029 7716 ft 289 kts 186°
2026-04-28 18:59 51.40958 -3.34349 7206 ft 305 kts 214°
2026-04-28 19:00 51.39345 -3.36703 6467 ft 321 kts 224°
2026-04-28 19:00 51.38161 -3.39807 5696 ft 337 kts 253°
2026-04-28 19:00 51.37988 -3.43540 4958 ft 340 kts 283°
2026-04-28 19:00 51.38858 -3.46898 4210 ft 325 kts 312°
2026-04-28 19:01 51.40559 -3.49137 3458 ft 307 kts 341°
2026-04-28 19:01 51.42409 -3.50459 3463 ft 283 kts 321°
2026-04-28 19:01 51.43255 -3.53228 3152 ft 287 kts 281°
2026-04-28 19:01 51.43256 -3.56405 2811 ft 283 kts 268°
2026-04-28 19:02 51.43104 -3.59500 2417 ft 275 kts 270°
2026-04-28 19:02 51.43097 -3.62519 1828 ft 276 kts 275°
2026-04-28 19:02 51.43387 -3.65485 1803 ft 243 kts 301°
2026-04-28 19:02 51.44433 -3.67118 2275 ft 207 kts 341°
2026-04-28 19:03 51.45845 -3.67597 1917 ft 211 kts
2026-04-28 19:03 51.47126 -3.66922 1900 ft 190 kts 45°
2026-04-28 19:03 51.47583 -3.65065 1948 ft 186 kts 93°
2026-04-28 19:03 51.46973 -3.63287 2004 ft 186 kts 129°
2026-04-28 19:04 51.46231 -3.61677 1975 ft 173 kts 106°
2026-04-28 19:04 51.46078 -3.59827 1977 ft 167 kts 81°
2026-04-28 19:04 51.46238 -3.57988 1975 ft 168 kts 80°
2026-04-28 19:04 51.46251 -3.56102 1961 ft 171 kts 92°
2026-04-28 19:05 51.45927 -3.54258 1976 ft 175 kts 108°
2026-04-28 19:05 51.45393 -3.52498 1984 ft 176 kts 111°
2026-04-28 19:05 51.44841 -3.50743 1976 ft 176 kts 111°
2026-04-28 19:05 51.44292 -3.49021 1960 ft 168 kts 111°
2026-04-28 19:06 51.43783 -3.47424 1838 ft 154 kts 110°
2026-04-28 19:06 51.43469 -3.46432 1743 ft 142 kts 110°
2026-04-28 19:06 51.42906 -3.44650 1468 ft 130 kts 110°
2026-04-28 19:06 51.42490 -3.43322 1309 ft 136 kts 110°
2026-04-28 19:07 51.42062 -3.41959 1112 ft 137 kts 110°
2026-04-28 19:07 51.41635 -3.40607 942 ft 136 kts 111°
2026-04-28 19:07 51.41211 -3.39267 751 ft 133 kts 111°
2026-04-28 19:07 51.40796 -3.37953 584 ft 133 kts 111°
2026-04-28 19:08 51.40362 -3.36620 397 ft 136 kts 113°
2026-04-28 19:08 51.39952 -3.35258 245 ft 137 kts 112°
2026-04-28 19:08 51.39556 -3.33980 218 ft 114 kts 118°
2026-04-28 19:08 51.39300 -3.33185 221 ft 12 kts 109°
2026-04-28 19:09 51.39359 -3.33063 222 ft 11 kts 28°
2026-04-28 19:09 51.39376 -3.33049 223 ft 4 kts 22°
2026-04-28 19:09 51.39409 -3.33041 219 ft 6 kts 355°
2026-04-28 19:09 51.39444 -3.33076 219 ft 6 kts 313°
2026-04-28 19:10 51.39466 -3.33130 220 ft 6 kts 299°
2026-04-28 19:10 51.39484 -3.33187 222 ft 6 kts 296°
2026-04-28 19:10 51.39509 -3.33266 220 ft 11 kts 297°
2026-04-28 19:10 51.39550 -3.33395 220 ft 15 kts 297°
2026-04-28 19:11 51.39597 -3.33540 219 ft 14 kts 297°
2026-04-28 19:11 51.39642 -3.33681 220 ft 15 kts 297°
2026-04-28 19:11 51.39685 -3.33820 222 ft 12 kts 297°
2026-04-28 19:11 51.39721 -3.33933 221 ft 11 kts 295°
2026-04-28 19:12 51.39754 -3.34037 221 ft 8 kts 302°
2026-04-28 19:12 51.39785 -3.34047 221 ft 8 kts 24°
2026-04-28 19:12 51.39804 -3.33967 220 ft 7 kts 82°
2026-04-28 19:12 51.39805 -3.33945 220 ft 2 kts 83°
2026-04-28 19:13 51.39806 -3.33942 220 ft 0 kts 83°